Погода в Тунха

Колумбия     5°32′37″N   73°22′03″W
темп.,
°C
ветер,
м/с
пор.,
м/с
влажн.,
%
обл.,
%
осадки,
мм/ч
давл.,
гПа
погр.,
м
8 марта, пн
пн801:00+9ссв1196100 0.1 101431
04:00+8вюв119598 0.0 101322
07:00+9юв119499 0.0 101576
10:00+14ююв2377100 0.3 1016859
13:00+15ююв347199 0.8 1013966
16:00+14ю3383100 1.3 1011555
19:00+10ю2297100 2.2 1014178
22:00+9ююв1197100 0.1 101636
9 марта, вт
вт901:00+8с1296100 0.1 101495
04:00+8ссв1295100 0.0 101329
07:00+9св1188100 0.0 101555
10:00+16ю1167100 0.1 1015787
13:00+16ю226794 1.0 10111017
16:00+14ююз228566 2.9 1009530
19:00+11ююв129679 8.0 1012135
22:00+10юв1197100 3.8 1015123
10 марта, ср
ср1001:00+10зюз0197100 5.1 101452
04:00+9ююв0097100 0.1 101323
07:00+10ю1195100 0.1 1015103
10:00+13ю2284100 0.6 1015566
13:00+15ююв2274100 2.4 1011727
16:00+13ю228891 3.7 1009476
19:00+11ююз129896 5.9 1012178
22:00+10ю1298100 5.2 1014134
11 марта, чт
чт1101:00+10ююз1298100 7.6 1014144
04:00+9ююз1198100 3.0 1013116
07:00+9ю1198100 5.4 1015126
10:00+11ю2293100 0.8 1016273
13:00+14ююз2280100 2.8 1012640
16:00+12юз2292100 3.5 1010307
19:00+10ююз119885 6.0 101264
22:00+10юз019898 2.8 101580
12 марта, пт
пт1201:00+9ссв019897 5.3 101432
04:00+9зюз019999 1.9 101343
07:00+10ю019899 2.9 101576
10:00+11ю239399 1.2 1016304
13:00+15ю237797 2.0 1013796
16:00+12ююз129098 2.6 1010377
19:00+10ююз129999 7.9 1013181
22:00+10ю1199100 7.0 1015116